When you browse on this site, cookies collect data to enhance your experience and personalize the content and advertising you see.
Visit our Privacy Policy to learn more. By continuing to use the site, you agree to this use of cookies and data.
  • In Hungary
  • List of Countries
  • For 7 days
  • Water Temperature
  • Satellite Maps
  • Weather Map
  • News
  • Weather Widgets
  • user-avatar
    Login

    Hourly Weather Puszcza

    Today, 17 January, Thursday

    Time Temperature Precipitation Wind Pressure Humidity
    00:00 +1°C° 0 mm 4 mps 745 mmHg 84%
    01:00 +1°C° 0 mm 4 mps 745 mmHg 82%
    02:00 +1°C° 0 mm 4 mps 744 mmHg 80%
    03:00 +1°C° 0 mm 4 mps 744 mmHg 78%
    04:00 +1°C° 0 mm 4 mps 743 mmHg 75%
    05:00 +1°C° 0 mm 5 mps 743 mmHg 75%
    06:00 +1°C° 0 mm 5 mps 743 mmHg 75%
    07:00 +1°C° 0 mm 5 mps 742 mmHg 74%
    08:00 +1°C° 0 mm 6 mps 743 mmHg 75%
    09:00 +2°C° 0 mm 6 mps 743 mmHg 75%
    10:00 +3°C° 0 mm 7 mps 743 mmHg 76%
    11:00 +3°C° 0 mm 6 mps 743 mmHg 76%
    12:00 +5°C° 0 mm 5 mps 743 mmHg 75%
    13:00 +5°C° 0 mm 5 mps 743 mmHg 75%
    14:00 +5°C° 0 mm 4 mps 743 mmHg 77%
    15:00 +5°C° 0 mm 4 mps 743 mmHg 78%
    16:00 +5°C° 0 mm 3 mps 743 mmHg 79%
    17:00 +4°C° 0.1 mm 4 mps 743 mmHg 81%
    18:00 +4°C° 0.1 mm 4 mps 743 mmHg 84%
    19:00 +4°C° 0.1 mm 4 mps 743 mmHg 87%
    20:00 +2°C° 0.1 mm 5 mps 743 mmHg 83%
    21:00 +2°C° 0.1 mm 5 mps 743 mmHg 79%
    22:00 +2°C° 0.1 mm 6 mps 743 mmHg 75%
    23:00 +2°C° 0 mm 6 mps 743 mmHg 75%

    Tomorrow, 18 January, Friday

    Time Temperature Precipitation Wind Pressure Humidity
    00:00 +1°C° 0 mm 5 mps 744 mmHg 75%
    01:00 0°C° 0 mm 5 mps 744 mmHg 75%
    02:00 -1°C° 0 mm 6 mps 745 mmHg 75%
    03:00 -1°C° 0 mm 6 mps 745 mmHg 74%
    04:00 -2°C° 0 mm 7 mps 746 mmHg 74%
    05:00 -2°C° 0 mm 7 mps 746 mmHg 73%
    06:00 -2°C° 0 mm 7 mps 747 mmHg 72%
    07:00 -2°C° 0 mm 8 mps 747 mmHg 72%
    08:00 -2°C° 0 mm 8 mps 749 mmHg 70%
    09:00 -2°C° 0 mm 8 mps 750 mmHg 69%
    10:00 -2°C° 0 mm 8 mps 751 mmHg 68%
    11:00 -2°C° 0.1 mm 7 mps 752 mmHg 68%
    12:00 -2°C° 0.1 mm 7 mps 752 mmHg 67%
    13:00 -2°C° 0.1 mm 6 mps 753 mmHg 66%
    14:00 -1°C° 0 mm 5 mps 754 mmHg 67%
    15:00 -2°C° 0 mm 4 mps 755 mmHg 67%
    16:00 -1°C° 0 mm 3 mps 755 mmHg 67%
    17:00 -1°C° 0 mm 3 mps 756 mmHg 71%
    18:00 -2°C° 0 mm 3 mps 756 mmHg 74%
    19:00 -2°C° 0 mm 3 mps 757 mmHg 78%
    20:00 -2°C° 0 mm 3 mps 757 mmHg 78%
    21:00 -2°C° 0 mm 3 mps 757 mmHg 78%
    22:00 -2°C° 0 mm 3 mps 758 mmHg 78%
    23:00 -2°C° 0 mm 3 mps 758 mmHg 76%

    Day after tomorrow, 19 January, Saturday

    Time Temperature Precipitation Wind Pressure Humidity
    00:00 -2°C° 0 mm 3 mps 758 mmHg 74%
    01:00 -2°C° 0 mm 3 mps 758 mmHg 72%
    02:00 -2°C° 0 mm 3 mps 758 mmHg 72%
    03:00 -2°C° 0 mm 3 mps 758 mmHg 72%
    04:00 -2°C° 0 mm 3 mps 757 mmHg 72%
    05:00 -2°C° 0 mm 3 mps 758 mmHg 74%
    06:00 -2°C° 0 mm 2 mps 758 mmHg 75%
    07:00 -2°C° 0 mm 2 mps 758 mmHg 76%
    08:00 -2°C° 0 mm 2 mps 758 mmHg 75%
    09:00 -2°C° 0 mm 2 mps 758 mmHg 73%
    10:00 -1°C° 0 mm 2 mps 759 mmHg 71%
    11:00 +2°C° 0 mm 1 mps 758 mmHg 69%
    12:00 +2°C° 0 mm 1 mps 758 mmHg 66%
    13:00 +3°C° 0 mm 1 mps 758 mmHg 63%
    14:00 +2°C° 0 mm 1 mps 758 mmHg 66%
    15:00 +2°C° 0 mm 1 mps 757 mmHg 68%
    16:00 0°C° 0 mm 0 mps 757 mmHg 71%
    17:00 +1°C° 0 mm 1 mps 757 mmHg 73%
    18:00 0°C° 0 mm 1 mps 757 mmHg 74%
    19:00 0°C° 0 mm 1 mps 757 mmHg 75%
    20:00 0°C° 0 mm 1 mps 757 mmHg 75%
    21:00 0°C° 0 mm 1 mps 757 mmHg 75%
    22:00 0°C° 0 mm 1 mps 757 mmHg 75%
    23:00 0°C° 0 mm 1 mps 757 mmHg 73%

    20 January, Sunday

    Time Temperature Precipitation Wind Pressure Humidity
    00:00 -1°C° 0 mm 1 mps 757 mmHg 71%
    01:00 -3°C° 0 mm 2 mps 757 mmHg 70%
    02:00 -1°C° 0 mm 1 mps 757 mmHg 69%
    03:00 -1°C° 0 mm 1 mps 756 mmHg 68%
    04:00 -1°C° 0 mm 1 mps 756 mmHg 67%
    05:00 -1°C° 0 mm 1 mps 756 mmHg 67%
    06:00 -2°C° 0 mm 1 mps 756 mmHg 67%
    07:00 -2°C° 0 mm 1 mps 756 mmHg 67%
    08:00 -1°C° 0 mm 1 mps 756 mmHg 65%
    09:00 -1°C° 0 mm 1 mps 756 mmHg 62%
    10:00 0°C° 0 mm 1 mps 757 mmHg 60%
    11:00 +1°C° 0 mm 1 mps 757 mmHg 56%
    12:00 +1°C° 0 mm 1 mps 757 mmHg 53%
    13:00 +2°C° 0 mm 1 mps 756 mmHg 50%
    14:00 +1°C° 0 mm 1 mps 756 mmHg 53%
    15:00 +1°C° 0 mm 1 mps 757 mmHg 56%
    16:00 0°C° 0 mm 1 mps 757 mmHg 59%
    17:00 0°C° 0 mm 1 mps 757 mmHg 62%
    18:00 -1°C° 0 mm 1 mps 757 mmHg 65%
    19:00 -1°C° 0 mm 1 mps 758 mmHg 68%
    20:00 -2°C° 0 mm 0 mps 758 mmHg 69%
    21:00 -2°C° 0 mm 0 mps 758 mmHg 71%
    22:00 -2°C° 0 mm 0 mps 759 mmHg 72%
    23:00 -3°C° 0 mm 0 mps 759 mmHg 72%

    21 January, Monday

    Time Temperature Precipitation Wind Pressure Humidity
    00:00 -3°C° 0 mm 0 mps 759 mmHg 73%
    01:00 -3°C° 0 mm 0 mps 759 mmHg 73%
    02:00 -3°C° 0 mm 0 mps 759 mmHg 74%
    03:00 -3°C° 0 mm 0 mps 759 mmHg 74%
    04:00 -3°C° 0 mm 0 mps 759 mmHg 74%
    05:00 -3°C° 0 mm 0 mps 759 mmHg 74%
    06:00 -3°C° 0 mm 0 mps 759 mmHg 75%
    07:00 -3°C° 0 mm 0 mps 759 mmHg 75%
    08:00 -2°C° 0 mm 1 mps 759 mmHg 72%
    09:00 -1°C° 0 mm 1 mps 759 mmHg 68%
    10:00 -1°C° 0 mm 1 mps 759 mmHg 65%
    11:00 -2°C° 0 mm 2 mps 759 mmHg 61%
    12:00 -1°C° 0 mm 2 mps 759 mmHg 57%
    13:00 -1°C° 0 mm 2 mps 759 mmHg 53%
    14:00 -1°C° 0 mm 2 mps 758 mmHg 55%
    15:00 -2°C° 0 mm 2 mps 758 mmHg 57%
    16:00 -2°C° 0 mm 2 mps 758 mmHg 59%
    17:00 -3°C° 0 mm 2 mps 758 mmHg 61%
    18:00 -4°C° 0 mm 3 mps 758 mmHg 62%
    19:00 -4°C° 0 mm 3 mps 758 mmHg 64%
    20:00 -4°C° 0 mm 3 mps 757 mmHg 64%
    21:00 -4°C° 0 mm 3 mps 757 mmHg 64%
    22:00 -4°C° 0 mm 3 mps 757 mmHg 64%
    23:00 -5°C° 0 mm 3 mps 757 mmHg 63%

    22 January, Tuesday

    Time Temperature Precipitation Wind Pressure Humidity
    00:00 -4°C° 0 mm 2 mps 756 mmHg 63%
    01:00 -4°C° 0 mm 2 mps 756 mmHg 62%
    02:00 -4°C° 0 mm 2 mps 755 mmHg 62%
    03:00 -4°C° 0 mm 2 mps 755 mmHg 62%
    04:00 -4°C° 0 mm 2 mps 754 mmHg 62%
    05:00 -4°C° 0 mm 2 mps 754 mmHg 63%
    06:00 -4°C° 0 mm 2 mps 753 mmHg 64%
    07:00 -4°C° 0 mm 2 mps 753 mmHg 65%
    08:00 -4°C° 0 mm 2 mps 753 mmHg 64%
    09:00 -3°C° 0 mm 2 mps 753 mmHg 62%
    10:00 -4°C° 0 mm 3 mps 752 mmHg 61%
    11:00 -2°C° 0 mm 2 mps 752 mmHg 58%
    12:00 -1°C° 0 mm 2 mps 751 mmHg 56%
    13:00 -1°C° 0 mm 2 mps 751 mmHg 53%
    14:00 -1°C° 0 mm 2 mps 750 mmHg 56%
    15:00 -1°C° 0 mm 2 mps 750 mmHg 58%
    16:00 -2°C° 0 mm 2 mps 749 mmHg 61%
    17:00 -2°C° 0 mm 3 mps 749 mmHg 63%
    18:00 -4°C° 0 mm 3 mps 749 mmHg 66%
    19:00 -4°C° 0 mm 3 mps 749 mmHg 68%
    20:00 -4°C° 0 mm 3 mps 749 mmHg 70%
    21:00 -4°C° 0 mm 3 mps 749 mmHg 72%
    22:00 -5°C° 0 mm 3 mps 749 mmHg 74%
    23:00 -5°C° 0 mm 3 mps 749 mmHg 73%
    Show more